www.pogodaiklimat.ru
ПОГОДА в Чимгане

Архив погоды в Чимгане (Ташкентская область, Узбекистан)

Время
и дата
21:40 27.05
21:50 27.05
22:00 27.05
22:10 27.05
22:20 27.05
22:30 27.05
22:40 27.05
23:00 27.05
23:20 27.05
23:30 27.05
23:40 27.05
23:50 27.05
00:10 28.05
00:20 28.05
00:40 28.05
01:00 28.05
01:10 28.05
01:40 28.05
01:50 28.05
02:10 28.05
02:20 28.05
02:30 28.05
02:40 28.05
03:00 28.05
03:20 28.05
03:40 28.05
03:50 28.05
04:10 28.05
04:20 28.05
04:40 28.05
04:50 28.05
05:00 28.05
05:30 28.05
05:50 28.05
06:00 28.05
06:20 28.05
06:30 28.05
06:50 28.05
07:00 28.05
07:10 28.05
07:20 28.05
07:40 28.05
07:50 28.05
08:10 28.05
08:20 28.05
08:40 28.05
08:50 28.05
09:00 28.05
09:10 28.05
09:20 28.05
09:30 28.05
09:40 28.05
09:50 28.05
10:00 28.05
10:10 28.05
10:30 28.05
10:50 28.05
11:00 28.05
11:10 28.05
11:30 28.05
11:40 28.05
11:50 28.05
12:00 28.05
12:20 28.05
12:30 28.05
13:10 28.05
13:20 28.05
13:30 28.05
13:40 28.05
14:00 28.05
14:20 28.05
14:40 28.05
14:50 28.05
15:00 28.05
15:10 28.05
15:30 28.05
15:40 28.05
15:50 28.05
16:10 28.05
16:20 28.05
16:30 28.05
16:40 28.05
17:00 28.05
17:10 28.05
17:40 28.05
17:50 28.05
18:10 28.05
18:20 28.05
18:30 28.05
18:50 28.05
19:10 28.05
19:30 28.05
19:40 28.05
20:00 28.05
20:10 28.05
20:30 28.05
20:50 28.05
21:00 28.05
21:10 28.05
21:20 28.05
21:30 28.05
21:40 28.05
21:50 28.05
22:10 28.05
22:20 28.05
22:30 28.05
22:40 28.05
23:00 28.05
23:20 28.05
23:40 28.05
00:00 29.05
00:10 29.05
00:20 29.05
00:40 29.05
01:00 29.05
01:10 29.05
01:20 29.05
01:40 29.05
01:50 29.05
02:00 29.05
02:10 29.05
02:20 29.05
02:40 29.05
03:00 29.05
03:20 29.05
03:40 29.05
04:00 29.05
04:20 29.05
04:30 29.05
04:40 29.05
04:50 29.05
05:00 29.05
05:10 29.05
05:20 29.05
05:30 29.05
05:40 29.05
05:50 29.05
06:10 29.05
06:30 29.05
06:50 29.05
07:10 29.05
07:30 29.05
07:40 29.05
07:50 29.05
Ветер
(напр.,м/с)
Видимость Явления Солнечная радиация
(Вт/м2)
Т
(С)
Тd
(С)
f
(%)
Тe
(С)
Тes
(С)
Комфортность P
(гПа)
Po
(гПа)
Тmin
(С)
Tmax
(С)
R
(мм)
ЮВ 1.0
{1.8}
+10.2 +1.3 54 +10 +10 1019.9 833.8 +10.8 +10.2
ЮВ 1.3
{2.0}
+10.4 +1.4 53 +10 +10 1019.9 833.8 +10.5 +10.2
ЮВ 1.2
{2.3}
+10.0 +2.1 58 +10 +10 1019.8 833.7 +10.4 +9.8
Ю 1.4
{2.5}
+9.9 +2.3 59 +9 +9 1019.8 833.7 +10.0 +9.8
Ю 1.5
{2.4}
+9.9 +2.3 59 +9 +9 1019.9 833.8 +10.0 +9.8
Ю 1.4
{2.3}
+9.9 +2.8 61 +9 +9 1020.0 833.9 +10.1 +9.9
Ю 1.3
{2.1}
+9.8 +1.7 57 +9 +9 1020.0 833.9 +10.0 +9.6
Ю 2.0
{2.8}
+9.8 +0.4 52 +9 +9 1020.2 834.0 +9.8 +9.5
ЮВ 1.8
{3.3}
+11.2 -1.0 43 +11 +11 1019.9 833.8 +11.2 +8.9
Ю 1.0
{2.2}
+9.7 +2.1 59 +10 +10 1019.9 833.8 +11.3 +9.7
Ю 1.6
{2.7}
+9.4 +0.1 52 +9 +9 1019.9 833.8 +9.7 +9.2
Ю 1.2
{2.4}
+9.7 -0.9 48 +9 +9 1019.8 833.7 +9.6 +9.4
В 1.1
{2.0}
+11.4 -0.5 44 +12 +12 1019.7 833.6 +11.5 +10.7
В 1.5
{2.2}
+11.0 -0.6 45 +11 +11 1019.7 833.6 +11.4 +10.9
В 1.4
{2.1}
+10.9 -0.4 45 +11 +11 1019.6 833.5 +11.4 +10.9
В 1.0
{1.7}
+10.6 +0.3 49 +11 +11 1019.6 833.5 +11.3 +10.6
В 1.0
{1.7}
+10.7 -0.3 47 +11 +11 1019.6 833.5 +11.0 +10.5
ЮВ 0.7
{1.4}
+10.4 -0.5 47 +11 +11 1019.3 833.3 +11.1 +10.4
ЮВ 0.6
{1.7}
+11.2 -1.7 41 +12 +12 1019.2 833.2 +11.3 +10.4
В 0.7
{1.4}
+11.0 -1.6 42 +12 +12 1019.2 833.2 +11.2 +10.9
ЮВ 1.2
{3.4}
+10.0 +0.1 50 +10 +10 1019.1 833.1 +11.0 +10.0
ЮВ 2.0
{3.6}
+9.4 +0.3 53 +8 +8 1019.0 833.0 +10.0 +9.4
ЮВ 2.0
{3.4}
+9.2 -1.4 47 +8 +8 1019.0 833.0 +9.4 +8.9
ЮВ 1.5
{2.7}
+8.9 -2.5 45 +8 +8 1019.0 833.0 +9.2 +8.9
ЮВ 0.7
{1.7}
+9.9 -3.2 40 +11 +11 1019.0 833.0 +9.9 +9.3
ЮВ 2.0
{3.5}
+9.0 -1.1 49 +8 +8 1018.9 832.9 +9.9 +9.1
ЮВ 2.0
{3.2}
+8.6 -1.8 48 +7 +7 1019.0 833.0 +9.0 +8.6
ЮВ 2.3
{3.5}
+9.5 -3.2 41 +8 +8 1019.0 833.0 +9.5 +8.8
ЮВ 2.5
{4.1}
+9.8 -2.2 43 +8 +8 1019.1 833.1 +10.0 +9.3
ЮВ 3.3
{6.0}
+10.9 -4.8 33 +9 +9 1019.1 833.1 +11.0 +9.7
ЮВ 3.3
{5.9}
0.1 +11.2 -3.7 35 +10 +10 1019.1 833.1 +11.4 +10.8
ЮВ 3.5
{5.9}
2.1 +11.2 -4.6 33 +10 +10 1019.2 833.2 +11.2 +10.8
Ю 3.5
{5.4}
13.3 +11.6 -3.4 35 +10 +10 1019.5 833.4 +12.0 +11.3
ЮВ 3.6
{5.7}
20.0 +11.1 -4.0 35 +10 +10 1019.6 833.5 +11.0 +10.6
Ю 3.2
{4.9}
23.5 +10.5 -2.1 41 +9 +9 1019.7 833.6 +11.3 +10.5
Ю 3.9
{6.1}
164.8 +12.0 -3.5 34 +10 +13 1019.7 833.6 +12.1 +11.6
Ю 3.7
{5.5}
194.7 +11.9 -2.3 37 +10 +13 1019.8 833.7 +12.1 +11.7
ЮВ 3.5
{5.3}
228.7 +13.1 -3.5 31 +12 +16 1019.8 833.7 +13.1 +12.7
ЮВ 2.9
{4.7}
271.5 +12.8 -1.4 37 +12 +17 1019.8 833.7 +13.2 +12.8
ЮВ 2.4
{4.4}
309.5 +13.4 -3.2 31 +13 +19 1019.7 833.6 +13.3 +12.8
ЮВ 2.4
{4.2}
331.1 +13.9 -2.1 33 +14 +21 1019.7 833.6 +13.9 +13.4
Ю 2.0
{3.9}
390.3 +15.0 +0.1 36 +15 +23 1019.7 833.6 +15.0 +14.5
Ю 1.9
{3.5}
417.7 +15.5 -0.3 34 +16 +25 1019.8 833.7 +15.6 +15.0
Ю 0.7
{2.0}
470.1 +16.9 +0.2 32 +18 +29 1019.8 833.7 +16.9 +16.4
З 0.7
{2.2}
487.9 +17.2 -3.6 24 +19 +30 1019.9 833.8 +17.3 +16.9
СЗ 1.0
{2.8}
487.6 +17.1 +0.1 32 +18 +29 1019.9 833.8 +17.3 +17.0
СЗ 1.2
{3.5}
375.3 +16.9 +2.2 37 +18 +26 1019.9 833.8 +17.1 +16.8
СЗ 0.9
{2.4}
608.1 +17.4 +0.9 33 +19 +33 опасность
простуды
1019.9 833.8 +17.4 +16.9
З 0.8
{2.6}
639.2 +18.1 +0.6 31 +19 +34 опасность
простуды
1019.8 833.7 +18.1 +17.4
С 1.4
{3.6}
564.1 +17.8 -0.5 29 +19 +31 опасность
простуды
1019.8 833.7 +18.3 +17.8
СЗ 1.2
{2.5}
678.3 +18.2 +5.8 44 +19 +34 опасность
простуды
1019.8 833.7 +18.1 +17.8
СВ 1.4
{3.2}
363.8 +17.5 +0.7 32 +18 +26 1019.8 833.7 +18.2 +17.5
СЗ 1.1
{2.3}
558.7 +17.7 +1.2 33 +19 +32 опасность
простуды
1019.8 833.7 +17.7 +17.4
СЗ 1.5
{4.1}
519.2 +17.5 +0.8 32 +18 +29 1019.8 833.7 +17.7 +17.5
ЮЗ 1.4
{3.3}
515.0 +17.9 +3.3 38 +19 +30 1019.9 833.8 +17.9 +17.5
З 1.8
{3.6}
609.7 +18.1 +3.5 38 +19 +32 опасность
простуды
1020.0 833.9 +18.1 +17.8
СЗ 2.2
{4.1}
672.0 +18.0 +4.4 40 +18 +32 опасность
простуды
1020.0 833.9 +18.3 +17.9
З 2.1
{4.1}
477.0 +17.5 +1.1 33 +18 +28 1020.0 833.9 +18.1 +17.4
З 2.4
{4.6}
714.2 +17.8 +1.7 34 +18 +32 опасность
простуды
1020.0 833.9 +18.1 +17.5
ЮЗ 2.0
{4.6}
711.1 +18.6 +5.0 41 +19 +34 опасность
простуды
1020.0 833.9 +18.6 +18.4
ЮЗ 2.3
{6.5}
875.9 +19.0 +3.1 35 +20 +38 опасность
простуды
1020.0 833.9 +19.1 +18.6
З 2.9
{6.7}
912.3 +18.4 +6.2 45 +19 +36 опасность
простуды
1020.0 833.9 +19.0 +18.4
ЮЗ 2.3
{5.3}
923.3 +19.5 +6.5 43 +21 +40 комфорт 1020.0 833.9 +19.5 +18.4
З 2.8
{5.5}
823.6 +19.3 +4.4 37 +20 +36 опасность
простуды
1020.0 833.9 +19.4 +18.9
З 2.6
{6.1}
894.6 +19.2 +3.1 34 +20 +38 опасность
простуды
1020.0 833.9 +19.3 +19.0
З 1.8
{4.4}
842.2 +19.9 +5.8 40 +21 +39 комфорт 1020.0 833.9 +19.9 +19.0
ЮЗ 2.5
{5.2}
842.4 +19.8 +4.7 37 +21 +38 комфорт 1020.0 833.9 +20.0 +19.7
ЮЗ 2.3
{5.7}
811.0 +19.6 +5.3 39 +21 +37 комфорт 1020.0 833.9 +19.9 +19.3
З 2.7
{6.5}
867.1 +19.6 +5.2 39 +21 +38 комфорт 1020.0 833.9 +19.7 +19.4
ЮЗ 2.2
{5.0}
661.0 +19.4 +5.8 41 +20 +33 опасность
простуды
1020.0 833.9 +19.7 +18.9
ЮЗ 2.9
{6.0}
610.1 +18.8 +4.5 39 +19 +31 опасность
простуды
1020.0 833.9 +19.1 +18.7
ЮЗ 2.6
{7.0}
586.8 +18.7 +5.4 42 +19 +30 1019.9 833.8 +18.7 +18.3
ЮЗ 2.1
{5.0}
514.6 +18.4 +2.4 34 +19 +30 1020.0 833.9 +18.8 +18.5
ЮЗ 2.2
{5.2}
560.8 +18.7 +3.8 37 +19 +30 1019.9 833.8 +18.7 +18.4
ЮЗ 2.2
{5.4}
291.8 +17.7 +4.7 42 +18 +24 1019.8 833.7 +18.7 +17.5
ЮЗ 2.4
{5.3}
381.9 +18.0 +4.9 42 +18 +26 1019.7 833.6 +19.1 +18.1
З 2.4
{5.6}
406.7 +17.7 +7.6 51 +18 +26 1019.7 833.6 +18.0 +17.2
ЮЗ 2.6
{5.4}
671.8 +19.0 +4.5 38 +20 +33 опасность
простуды
1019.7 833.6 +19.0 +17.7
ЮЗ 1.8
{4.0}
146.9 +16.3 +1.2 36 +17 +20 1019.7 833.6 +17.3 +16.3
ЮЗ 1.9
{3.7}
235.4 +16.5 +1.4 36 +17 +22 1019.6 833.5 +16.5 +16.2
ЮЗ 1.9
{3.7}
566.5 +18.5 +1.3 32 +19 +31 опасность
простуды
1019.3 833.3 +18.4 +16.5
ЮЗ 2.0
{4.9}
386.4 +18.6 +2.0 33 +19 +27 1019.3 833.3 +18.8 +18.5
ЮЗ 2.4
{5.5}
377.8 +18.7 +2.8 35 +19 +27 1019.2 833.2 +19.0 +18.6
ЮЗ 2.8
{6.7}
424.7 +18.6 +2.1 33 +19 +27 1019.3 833.3 +18.7 +18.6
ЮЗ 2.0
{5.4}
287.2 +17.8 +4.6 42 +18 +24 1019.2 833.2 +18.0 +17.7
З 2.3
{5.3}
248.8 +17.6 +4.1 41 +18 +23 1019.2 833.2 +17.9 +17.6
З 2.5
{5.1}
198.6 +16.8 +4.2 43 +17 +21 1019.1 833.1 +17.1 +16.7
З 1.8
{4.2}
167.3 +16.8 +4.2 43 +17 +21 1019.2 833.2 +16.9 +16.8
З 2.0
{4.9}
133.5 +16.6 +4.2 44 +17 +20 1019.2 833.2 +16.8 +16.6
ЮЗ 1.6
{4.0}
100.5 +15.8 +5.1 49 +16 +18 1019.3 833.3 +15.9 +15.8
ЮЗ 2.8
{5.9}
28.9 +14.7 +2.5 44 +14 +15 1019.5 833.4 +15.4 +14.7
ЮЗ 2.2
{4.8}
10.2 +13.5 +2.7 48 +13 +13 1019.6 833.5 +14.0 +13.5
Ю 1.9
{3.9}
4.5 +12.6 +3.4 54 +12 +12 1019.6 833.5 +13.5 +12.6
ЮЗ 2.2
{4.7}
+12.3 +3.1 53 +12 +12 1019.6 833.5 +12.6 +12.3
Ю 2.8
{5.4}
+12.2 +2.4 51 +11 +11 1019.6 833.5 +12.3 +12.0
Ю 4.2
{8.9}
+12.4 +1.6 48 +11 +11 1019.7 833.6 +12.8 +12.4
Ю 4.2
{8.3}
+12.3 +1.2 47 +11 +11 1019.8 833.7 +12.5 +12.2
Ю 5.0
{9.7}
+12.7 +0.8 44 +11 +11 1019.9 833.8 +12.7 +12.3
Ю 4.2
{8.5}
+12.5 +0.7 44 +11 +11 1020.0 833.9 +12.7 +12.3
Ю 4.4
{7.9}
+12.2 +0.5 45 +10 +10 1020.0 833.9 +12.5 +12.1
Ю 4.3
{8.5}
+12.3 +0.3 44 +11 +11 1020.0 833.9 +12.6 +12.2
Ю 3.5
{6.6}
+12.2 +0.3 44 +11 +11 1020.2 834.0 +12.4 +11.9
Ю 3.7
{6.4}
+11.9 +0.2 45 +10 +10 1020.3 834.1 +12.2 +11.8
Ю 4.6
{7.7}
+12.0 +0.1 44 +10 +10 1020.2 834.0 +12.1 +11.9
Ю 4.5
{7.4}
+12.0 0.0 44 +10 +10 1020.0 833.9 +12.2 +12.0
Ю 4.5
{7.6}
+11.9 -0.2 43 +10 +10 1020.0 833.9 +12.0 +11.8
Ю 4.7
{8.0}
+12.0 -1.1 40 +10 +10 1020.0 833.9 +12.1 +11.8
Ю 4.4
{7.7}
+11.9 -1.6 39 +10 +10 1019.9 833.8 +12.2 +11.8
Ю 4.1
{7.0}
+11.6 -2.0 39 +10 +10 1020.0 833.9 +11.9 +11.5
Ю 2.7
{5.7}
+11.2 -1.3 42 +10 +10 1020.2 834.0 +11.7 +11.2
Ю 3.1
{5.5}
+10.8 -1.3 43 +9 +9 1020.2 834.0 +11.1 +10.7
Ю 3.6
{5.4}
+10.7 -1.0 44 +9 +9 1020.2 834.0 +10.9 +10.6
Ю 3.4
{7.4}
+10.9 -1.4 42 +9 +9 1020.3 834.1 +10.9 +10.5
Ю 3.6
{6.3}
+11.2 -0.1 46 +9 +9 1020.3 834.1 +11.3 +11.1
Ю 4.3
{6.3}
+11.2 +0.3 47 +9 +9 1020.3 834.1 +11.5 +11.2
Ю 3.6
{6.5}
+10.7 +1.5 53 +9 +9 1020.3 834.1 +11.3 +10.7
Ю 3.3
{4.9}
+10.0 +1.6 56 +8 +8 1020.2 834.0 +10.7 +10.0
Ю 3.0
{4.4}
+9.1 +1.7 60 +7 +7 1020.0 833.9 +9.4 +8.9
ЮВ 2.7
{4.6}
+9.4 +0.9 55 +8 +8 1020.0 833.9 +9.5 +8.9
ЮВ 2.6
{4.0}
+9.5 +0.5 53 +8 +8 1020.0 833.9 +9.7 +9.4
ЮВ 2.5
{3.5}
+9.4 -0.4 50 +8 +8 1020.0 833.9 +9.5 +9.2
ЮВ 2.5
{3.3}
+9.6 -1.5 46 +8 +8 1020.0 833.9 +9.6 +9.4
ЮВ 1.8
{3.5}
+8.9 -0.1 53 +8 +8 1020.0 833.9 +9.4 +8.9
ЮВ 2.0
{2.8}
+9.4 -2.7 43 +8 +8 1019.9 833.8 +9.4 +8.9
В 1.3
{2.0}
+9.2 -3.2 42 +9 +9 1019.8 833.7 +9.2 +8.6
В 1.5
{2.0}
+8.9 -1.3 49 +8 +8 1019.8 833.7 +9.5 +8.8
В 1.5
{2.2}
+9.6 -5.4 34 +9 +9 1019.8 833.7 +9.7 +9.4
ЮВ 0.8
{1.4}
+8.0 -5.0 40 +8 +8 1019.8 833.7 +9.2 +8.0
ЮВ 0.8
{1.4}
+7.9 -4.8 40 +8 +8 1019.7 833.6 +8.0 +7.9
ЮВ 1.2
{1.7}
+8.2 -4.3 41 +8 +8 1019.7 833.6 +8.3 +7.8
ЮВ 1.4
{2.2}
+7.7 -4.9 41 +7 +7 1019.7 833.6 +8.2 +7.3
ЮВ 1.2
{2.4}
1.9 +8.3 -5.7 37 +8 +8 1019.7 833.6 +8.3 +7.5
ЮВ 1.2
{1.8}
5.5 +9.0 -5.2 36 +9 +9 1019.7 833.6 +9.2 +8.3
ЮВ 1.4
{2.0}
9.7 +8.1 -2.3 48 +7 +7 1019.7 833.6 +9.1 +8.1
ЮВ 1.3
{1.6}
13.5 +7.3 -3.8 45 +7 +7 1019.8 833.7 +8.1 +7.3
ЮВ 1.6
{3.2}
17.0 +8.5 -4.6 39 +8 +8 1019.7 833.6 +8.5 +7.3
ЮВ 2.4
{3.4}
20.8 +10.0 -3.2 39 +9 +9 1019.7 833.6 +10.0 +8.5
ЮВ 2.5
{4.0}
48.3 +10.2 -2.2 42 +9 +10 1019.7 833.6 +10.5 +10.1
ЮВ 2.0
{3.2}
188.3 +11.2 -1.5 41 +10 +14 1019.7 833.6 +11.3 +10.5
ЮВ 1.4
{3.1}
245.5 +11.8 +0.5 46 +12 +17 1019.6 833.5 +11.8 +10.9
ЮВ 1.0
{1.9}
304.1 +12.3 +0.3 44 +13 +20 1019.7 833.6 +12.7 +12.3
ЮЗ 1.4
{3.5}
365.3 +12.5 +1.4 47 +12 +20 1019.8 833.7 +12.5 +12.2
ЮЗ 1.0
{2.5}
394.7 +13.4 +0.7 42 +14 +23 1019.8 833.7 +13.4 +12.5
Ю 1.2
{2.2}
424.5 +13.8 +0.3 40 +14 +24 1019.8 833.7 +13.8 +13.4
Местоположение метеостанции Чимган (Ташкентская область, Узбекистан): широта 41.56 долгота 70.02 высота над уровнем моря 0 м.
В архиве по умолчанию представлена погода в Чимгане за последние 1-2 суток. Обновление информации о фактической погоде в базе происходит ежечасно! Архивные данные за месяц целиком и за предыдущие месяцы Вы можете получить, выбрав интересующий диапазон дат из раскрывающегося списка и нажав кнопку "Ввод!".
*Определитесь, кто Вы:
Внимание! Время в таблицах - местное (без учета летнего времени). Для получения всемирного времени необходимо вычесть поправку, которая равна 5 ч.
Смотрите также архив погоды на ближайших метеорологических станциях:
Партнеры нашего сайта:      
Пояснения к столбцам:
  • Ветер - указаны скорость ветра в м/с - средняя за 10 мин, порывы в срок и между сроками (в фигурных скобках) и направление, откуда дует ветер: С - северный,
  • СВ - северо-восточный, В - восточный, ЮВ - юго-восточный, Ю - южный, ЮЗ - юго-западный, З - западный, СЗ - северо-западный.
  • Видимость - горизонтальная дальность видимости в метрах или километрах. При видимости от 1 до 10 км при отсутствии осадков обычно наблюдается дымка, при ухудшении видимости до 1 км и менее - туман. В сухую погоду видимость может ухудшаться дымом, пылью или мглою.
  • Явления - указаны атмосферные явления, наблюдавшиеся в срок или в последний час перед сроком.
  • Солнечная радиация - мощность потока солнечного излучения на поверхность земли и предметов в Вт/м2.
  • T - Температура воздуха - температура, измеренная на высоте 2 м над землей.
  • Td - Температура точки росы - температура, при понижении до которой содержащийся в воздухе водяной пар достигнет насыщения.
  • f - Относительная влажность воздуха - влажноcть воздуха, измеренная на высоте 2 м над землей.
  • Te - Эффективная температура - температура, которую ощущает одетый по сезону человек в тени. Характеристика душности погоды. При расчете учитывается влияние влажности воздуха и скорости ветра на теплоощущения человека.
  • Tes - Эффективная температура на солнце - температура, которую ощущает человек, с поправкой на солнечный нагрев. Характеристика знойности погоды. Зависит от высоты солнца над горизонтом, облачности и скорости ветра. Ночью, в пасмурную погоду, а также при ветре 12 м/с и более поправка равна нулю.
  • P - Атмосферное давление - приведенное к уровню моря атмосферное давление.
  • Po - Атмосферное давление - измеренное на уровне метеостанции атмосферное давление.
  • Tmin - Минимальная температура - минимум температуры воздуха на высоте 2 м над землей.
  • Tmax - Максимальная температура - максимум температуры воздуха на высоте 2 м над землей.
  • R - Количество осадков - Количество выпавших осадков за период времени, мм. При наведении курсора мыши на число - период времени, за который выпало указанное количество осадков.